User: anonymous
Location: Cape Cod Imaging Station
(41.7417°N, 70.1583°W)
Time: 20:54:50
(UTC-04:00)
Language:

Cosmos 1508 Rocket - Orbit

View from above orbital plane
View from above orbital plane
View from above satellite
View from above satellite

Ground track
Ground track

The orbit data is extracted from the following two-line orbital elements,

1 14484U 83111B   14258.16312693  .00043972  00000-0  61416-3 0  6270
2 14484 082.8366 241.8349 0194938 311.0808 118.8325 15.37544582586351
Epoch (UTC): 15 September 2014 03:54:54
Eccentricity: 0.0194938
inclination: 82.8366°
perigee height: 320 km
apogee height: 586 km
right ascension of ascending node: 241.8349°
argument of perigee: 311.0808°
revolutions per day: 15.37544582
mean anomaly at epoch: 118.8325°
orbit number at epoch: 58635

The dashed part of the orbit path shows where the satellite is in the earth's shadow,  

DLR